#timestamp,LO_Frequency,Hit,StdDev 
1635278415.4,286047000.7,N
1635278435.2,286047000.5,N
1635278455.1,286047000.0,N
1635278456.0,286047000.0,N
1635278475.8,286047000.2,N
1635278495.7,286047002.3,N
1635278515.5,286047002.5,N
1635278535.3,286047001.5,N
1635278555.2,286047004.3,Y
1635278575.9,286047001.7,P
1635278595.7,286047001.5,N
1635278615.6,286047003.4,P
1635278635.4,286047001.8,N
1635278655.3,286047002.3,N
1635278675.1,286047001.6,N
1635278676.0,286047001.6,N
1635278695.8,286047001.8,N
1635278715.7,286047001.7,N
1635278735.5,286047001.8,N
1635278755.3,286047001.8,N
1635278775.2,286047001.7,N
1635278795.0,286047001.9,Y
1635278795.9,286047001.9,P
1635278815.8,286047000.8,P
1635278835.6,286046998.4,P
1635278855.4,286046998.1,N
1635278875.3,286046998.2,N
1635278895.1,286047000.6,N
1635278915.8,286047001.2,N
1635278935.7,286047001.2,N
1635278955.5,286047000.4,N
1635278975.4,286046998.5,N
1635278995.2,286047000.5,N
1635279015.0,286047002.8,N
1635279015.9,286047002.8,N
1635279035.8,286047002.8,N
1635279055.6,286047002.3,N
1635279075.4,286047001.6,N
1635279095.3,286047002.3,N
1635279115.1,286046999.8,N
1635279135.9,286047000.3,N
1635279155.7,286047000.9,N
1635279175.5,286047001.1,N
1635279195.4,286046999.0,N
1635279215.2,286046998.7,N
1635279235.0,286046998.1,N
1635279235.9,286046998.1,N
1635279255.8,286047001.0,N
1635279275.6,286047000.9,N
1635279295.5,286047001.1,N
1635279315.3,286046999.9,N
1635279335.1,286047000.5,N
1635279355.9,286047001.2,N
1635279375.7,286047001.1,N
1635279395.5,286046998.5,N
1635279415.4,286046998.5,N
1635279435.2,286046998.1,N
1635279455.1,286046998.8,N
1635279456.0,286046998.8,N
1635279475.8,286046999.1,N
1635279495.6,286046999.3,N
1635279515.5,286046999.1,N
1635279535.3,286046999.1,N
1635279555.1,286046999.3,N
1635279575.9,286046998.9,N
1635279595.7,286046998.8,N
1635279615.6,286047001.1,N
1635279635.4,286046998.1,N
1635279655.2,286047000.3,N
1635279675.1,286047002.7,N
1635279676.0,286047002.7,N
1635279695.8,286046999.7,N
1635279715.7,286047001.8,N
1635279735.5,286047002.4,N
1635279755.3,286047002.6,N
1635279775.2,286046999.9,N
1635279795.9,286047000.0,N
1635279815.7,286047000.4,N
1635279835.6,286046998.6,N
1635279855.4,286046998.4,N
1635279875.3,286046998.3,N
1635279895.1,286046998.3,N
1635279896.0,286046998.3,N
1635279915.8,286046998.3,N
1635279935.7,286046999.3,N
1635279955.5,286046998.5,N
1635279975.3,286046998.7,N
1635279995.2,286046998.9,N
1635280015.0,286046998.2,N
1635280015.9,286046998.2,N
1635280035.8,286047000.4,N
1635280055.6,286047000.3,N
1635280075.4,286047001.2,N
1635280095.3,286047000.0,N
1635280115.1,286047000.2,N
1635280135.9,286047000.5,N
1635280155.7,286047000.2,N
1635280175.5,286047002.4,N
1635280195.4,286046999.7,N
1635280215.2,286046999.7,N
1635280235.0,286047002.5,N
1635280235.9,286047002.5,N
1635280255.8,286047002.8,N
1635280275.6,286047002.4,N
1635280295.5,286047000.8,N
1635280315.3,286047002.8,N
1635280335.1,286046999.8,N
1635280355.9,286046999.8,N
1635280375.7,286047000.3,N
1635280395.5,286047000.5,N
1635280415.4,286047000.3,N
1635280435.2,286047000.3,N
1635280455.1,286047000.9,N
1635280456.0,286047000.9,N
1635280475.8,286047000.1,N
1635280495.6,286047002.3,N
1635280515.5,286046999.8,N
1635280535.3,286047000.1,N
1635280555.1,286047001.0,N
1635280575.9,286047002.8,N
1635280595.7,286047002.0,N
1635280615.6,286047001.4,N
1635280635.4,286047002.0,N
1635280655.2,286047002.6,N
1635280675.1,286047002.5,N
1635280676.0,286047002.5,N
1635280695.8,286047001.5,N
1635280715.6,286047002.3,N
1635280735.5,286047002.6,N
1635280755.3,286047002.1,N
1635280775.2,286047001.5,N
1635280795.9,286047001.8,N
1635280815.7,286047002.5,N
1635280835.6,286047004.4,Y
1635280855.4,286047002.4,P
1635280875.3,286047000.3,N
1635280895.1,286047000.2,N
1635280896.0,286047000.2,N
1635280915.8,286047000.0,N
1635280935.7,286047000.0,N
1635280955.5,286046998.2,N
1635280975.3,286046998.6,N
1635280995.2,286047000.6,N
1635281015.0,286047000.8,N
1635281015.9,286047000.8,N
1635281035.8,286046998.5,N
1635281055.6,286047000.0,N
1635281075.4,286047000.8,N
1635281095.3,286047001.1,N
1635281115.1,286046998.3,N
1635281135.9,286046998.6,N
1635281155.7,286047001.2,N
1635281175.5,286047000.3,N
1635281195.4,286047001.2,N
1635281215.2,286046998.4,N
1635281235.1,286046998.6,N
1635281236.0,286046998.6,N
1635281255.8,286047000.9,N
1635281275.6,286046999.2,N
1635281295.5,286046998.4,N
1635281315.3,286046999.5,N
1635281335.2,286046998.8,N
1635281355.9,286046999.2,N
1635281375.7,286046998.9,N
1635281395.6,286046998.6,N
1635281415.4,286047001.2,N
1635281435.3,286047001.0,N
1635281455.1,286047000.7,N
1635281456.0,286047000.7,N
1635281475.8,286046998.8,N
1635281495.7,286046999.1,N
1635281515.5,286047001.1,N
1635281535.3,286047000.7,N
1635281555.2,286047000.9,N
1635281575.0,286046999.9,N
1635281575.9,286046999.9,N
1635281595.8,286046998.1,N
1635281615.6,286046998.5,N
1635281635.4,286046998.1,N
1635281655.3,286047000.6,N
1635281675.1,286047000.4,N
1635281695.8,286046998.1,N
1635281715.7,286046998.5,N
1635281735.5,286047000.8,N
1635281755.4,286047000.8,N
1635281775.2,286047000.6,N
1635281795.0,286047000.0,N
1635281795.9,286047000.0,N
1635281815.8,286046999.7,N
1635281835.6,286047000.7,N
1635281855.4,286047001.0,N
1635281875.3,286047000.7,N
1635281895.1,286047000.6,N
1635281915.9,286047000.1,N
1635281935.7,286047000.8,N
1635281955.5,286046998.3,N
1635281975.4,286046998.2,N
1635281995.2,286046999.4,N
